Location: *
(51.1248°S, 108.4023°W)
Time: 21:53:57
(UTC+00:00)

H-2A R/B - Pass Details

Date: 15 June 2021
Orbit: 732 x 837 km, 98.2° (Epoch: 04 August)

Event Time Altitude Azimuth Distance (km) Brightness Sun altitude
Rises 13:09:33 0° 24° (NNE) 3,237 5.8 -18.7°
Reaches altitude 10° 13:11:52 10° 26° (NNE) 2,304 5.0 -18.3°
Maximum altitude 13:16:54 69° 109° (ESE) 814 2.3 -17.6°
Drops below altitude 10° 13:21:53 10° 190° (S) 2,287 4.2 -16.8°
Enters shadow 13:23:20 - 192° (SSW) 2,866 4.7 -16.6°
